Location: Smithers
(54.7670°N, 127.1670°W)
Time: 13:16:34
(UTC-08:00)

Daily predictions for brighter satellites

Satellite Brightness Start Highest point End
(mag) Time Altitude Azimuth Time Altitude Azimuth Time Altitude Azimuth
Cosmos 1814 Rocket 4.4 16:47:47 10° NNW 16:52:56 45° NE 16:58:06 10° SE
Cosmos 1707 Rocket 4.1 16:49:35 10° SSE 16:53:46 41° E 16:57:58 10° NNE
CSL-04 Debris 4.4 16:49:09 10° SE 16:54:20 48° ENE 16:59:31 10° N
ATLAS CENTAUR R/B 2.5 16:51:06 10° W 16:54:21 28° NNW 16:57:38 10° NE
Cosmos 1833 Rocket 3.5 16:49:44 10° NNW 16:54:43 31° NE 16:59:41 10° E
Cosmos 1408 3.2 16:51:24 10° NNW 16:55:04 63° W 16:58:40 10° S
USA 32 4.4 16:52:10 10° N 16:57:25 72° W 17:02:39 10° S
Aureole 3 3.9 16:53:47 10° N 16:57:44 48° ENE 17:02:43 10° SSE
TSX-5 4.1 16:54:32 10° NW 16:57:44 60° WSW 17:01:22 10° SSE
COSMOS 2441 4.4 16:54:39 10° SSE 16:59:29 69° ENE 17:04:24 10° NNW
Cosmos 1633 4.4 16:58:51 10° NNE 17:00:36 13° ENE 17:02:21 10° E
ALOS 3.7 16:57:50 10° E 17:00:54 18° NE 17:03:59 10° NNE
Cosmos 2227 Rocket 4.0 16:59:40 10° WNW 17:03:56 21° NNW 17:08:14 10° NNE
SJ-12 3.9 17:00:54 10° SSE 17:05:01 70° ENE 17:09:11 10° N
Cosmos 2278 Rocket 3.9 17:04:21 10° SE 17:07:13 14° E 17:10:04 10° ENE
Cosmos 2173 Rocket 4.0 17:03:25 10° S 17:09:28 68° E 17:15:36 10° NNE
Cosmos 2263 Rocket 2.3 17:04:04 10° SW 17:09:44 80° NW 17:15:24 10° NNE
ATLAS 3B R/B 2.9 17:03:13 10° SW 17:10:28 77° NW 17:17:24 10° NE
SMAP 3.2 17:06:05 10° SE 17:10:34 50° ENE 17:15:06 10° N
USA 238 DEB 3.9 17:03:41 10° SW 17:10:38 81° NW 17:17:45 10° NE
Cosmos 1862 3.3 17:06:37 10° N 17:10:40 84° E 17:14:42 10° SSE
USA 238 3.9 17:03:47 10° SW 17:10:45 81° NW 17:17:51 10° NE
CZ-2C R/B 2.8 17:06:21 10° S 17:11:23 77° WSW 17:16:35 10° NNW
Cosmos 1484 Rocket 3.0 17:10:35 10° SE 17:14:19 48° ENE 17:18:09 10° N
Cosmos 1850 Rocket 4.3 17:09:50 10° S 17:14:49 49° ESE 17:19:50 10° NE
Cosmos 540 Rocket 4.2 17:11:11 10° NNW 17:15:48 31° NE 17:20:23 10° ESE
Ariane Rocket 3.0 17:10:54 10° SSE 17:15:56 65° ENE 17:21:00 10° NNW
Cosmos 676 Rocket 4.2 17:11:21 10° SSW 17:16:40 78° WNW 17:21:57 10° NNE
Cosmos 841 Rocket 3.7 17:12:27 10° NNW 17:17:36 48° NE 17:22:43 10° SE
BREEZE-M R/B 4.0 17:17:33 10° WSW 17:19:35 23° S 17:22:06 10° SE
IDEFIX/ARIANE 42P 3.5 17:14:32 10° S 17:19:39 54° W 17:24:47 10° NNW
USA 161 0.4 17:17:56 10° NNE 17:19:42 54° E 17:21:36 10° S
Cosmos 1459 Rocket 4.0 17:14:36 10° S 17:20:57 81° E 17:27:16 10° NNE
CORIOLIS 4.2 17:16:25 10° SE 17:21:45 59° ENE 17:27:07 10° N
Cosmos 1908 Rocket 4.2 17:19:03 10° N 17:23:01 32° ENE 17:26:55 10° SE
IRAS Rocket 4.4 17:17:57 10° SSE 17:23:32 83° WSW 17:29:05 10° NNW
Cosmos 1733 Rocket 3.0 17:21:58 10° N 17:26:24 67° ENE 17:30:49 10° SSE
AQUARIUS 4.1 17:22:27 10° SSE 17:26:55 66° ENE 17:31:24 10° N
Cosmos 972 Rocket 3.9 17:21:53 10° NNW 17:26:58 88° ENE 17:31:52 10° SSE
Cosmos 1741 Rocket 4.1 17:24:31 10° S 17:29:46 62° ESE 17:35:03 10° NNE
Cosmos 397 4.4 17:25:54 10° SW 17:29:57 77° SE 17:33:58 12° NE
Sich 1 Rocket 4.2 17:26:48 10° N 17:30:48 32° ENE 17:34:48 10° SE
Cosmos 2242 Rocket 4.0 17:27:44 10° SSE 17:32:04 45° E 17:36:24 10° NNE
Cosmos 2100 Rocket 4.2 17:27:12 10° SSW 17:33:27 82° WNW 17:39:50 10° N
SL-16 R/B 4.2 17:29:58 10° N 17:35:19 31° NW 17:40:40 10° WSW
Meteor 1-20 Rocket 4.4 17:30:07 10° N 17:35:33 47° ENE 17:40:52 10° SE
Cosmos 2297 Rocket 4.1 17:32:02 10° WNW 17:35:57 19° NNW 17:39:53 10° NNE
Cosmos 2233 Rocket 4.4 17:31:25 10° SSE 17:37:11 41° E 17:42:56 10° NNE
Lacrosse 5 2.0 17:33:13 10° SW 17:38:15 69° SSE 17:42:16 16° ENE
Cosmos 2082 Rocket 2.4 17:33:27 10° NNW 17:39:01 48° NE 17:44:31 10° ESE
CZ-4C R/B 2.9 17:34:07 10° NW 17:40:29 53° NNE 17:47:31 11° E
SPOT 3 Rocket 4.0 17:35:43 10° SE 17:40:34 40° ENE 17:45:25 10° N
Cosmos 1346 2.2 17:40:34 10° S 17:42:50 70° ESE 17:44:29 16° NNE
H-2A R/B 4.4 17:43:58 16° NE 17:43:58 16° NE 17:45:46 10° NNE
Cosmos 1862 Rocket 3.9 17:39:12 10° SSE 17:43:25 44° E 17:47:41 10° NNE
Cosmos 44 Rocket 3.5 17:40:16 10° NW 17:44:57 48° NNE 17:49:09 13° ESE
Cosmos 972 4.4 17:40:21 10° NNW 17:45:38 72° ENE 17:50:33 10° SSE
NOSS 3-2 (C) 3.6 17:40:52 10° SW 17:47:04 87° SE 17:53:07 14° NE
Cosmos 1802 Rocket 4.1 17:40:57 10° SSW 17:47:08 82° WNW 17:53:18 10° N
Cosmos 1340 2.6 17:44:33 10° S 17:48:17 63° E 17:52:03 10° NNE
CSL-04 Rocket 4.1 17:45:00 10° S 17:50:16 68° WSW 17:55:39 10° NNW
NOAA 12 4.4 17:45:38 10° SE 17:50:36 42° ENE 17:55:36 10° N
Cosmos 614 Rocket 4.5 17:45:56 10° SW 17:51:08 62° WNW 17:56:21 10° NNE
Cosmos 1437 3.1 17:50:01 10° S 17:53:01 41° E 17:54:50 20° NE
NOSS 3-2 (A) 3.7 17:50:50 10° WSW 17:57:04 75° NW 18:02:51 16° NE
Cosmos 1140 Rocket 4.2 17:53:14 10° SW 17:58:19 52° NW 18:03:25 10° NNE
Cosmos 304 Rocket 3.9 17:53:37 10° NNW 17:58:28 77° WSW 18:03:15 10° SSE
Meteor 2-10 Rocket 3.7 17:54:38 10° SSW 17:59:55 80° WNW 18:05:28 10° NNE
Cosmos 292 Rocket 4.2 17:56:42 10° NNW 18:01:11 39° NE 18:04:34 16° ESE
ERS-2 2.0 17:59:08 10° SSE 18:02:48 71° ENE 18:06:30 10° NNW
METEOR-M 4.0 17:59:13 10° SSE 18:04:32 74° ENE 18:09:53 10° NNW
CZ-2C R/B 3.8 18:00:11 10° NNE 18:04:32 50° E 18:08:55 10° S
Okean 1-7 4.1 18:02:46 10° SE 18:06:01 24° E 18:06:01 24° E
Cosmos 1782 Rocket 3.7 18:03:11 10° N 18:07:26 48° ENE 18:11:39 10° SSE
Meteor 1-14 Rocket 4.3 18:03:31 10° NNW 18:09:19 87° WSW 18:14:56 10° S
Cosmos 1725 Rocket 4.0 18:04:57 10° S 18:11:15 87° W 18:17:33 10° N
COSMO-SKYMED 1 3.1 18:09:51 23° NE 18:11:58 36° E 18:15:58 10° SSE
CZ-4 R/B 4.4 18:08:16 10° SSE 18:12:26 89° WSW 18:16:39 10° NNW
CENTAUR R/B 2.7 18:10:45 10° SSW 18:16:58 67° SE 18:21:47 22° NE
Cosmos 1844 Rocket 2.6 18:12:23 10° SSW 18:18:03 87° ESE 18:22:34 17° NNE
USA 116 4.0 18:15:35 10° NNE 18:20:26 69° E 18:24:44 10° S
YAOGAN 1 2.8 18:16:12 10° S 18:20:32 71° WSW 18:24:53 10° NNW
Cosmos 44 3.1 18:17:18 10° NW 18:21:53 77° NE 18:24:57 22° SE
CZ-4 R/B 2.3 18:18:37 10° S 18:22:21 47° W 18:26:07 10° NNW
Timation 2 Rocket 4.3 18:17:47 10° NNW 18:24:33 54° NE 18:28:49 22° ESE
COSMOS 2455 2.9 18:18:54 10° SSW 18:24:46 58° ESE 18:28:07 26° NE
Cosmos 1763 Rocket 4.5 18:20:39 10° NW 18:25:42 49° WSW 18:30:40 10° S
COSMOS 2487 4.0 18:23:33 10° N 18:25:20 22° NNE 18:25:20 22° NNE
SL-27 R/B 2.7 18:24:18 10° NNW 18:27:38 64° WSW 18:30:56 10° SSE
Nadezhda 4 Rocket 4.2 18:22:36 10° N 18:28:26 42° ENE 18:34:12 10° SE
Meteor 1-11 Rocket 4.0 18:23:01 10° N 18:28:46 48° ENE 18:34:22 10° SE
Timation 1 Rocket 4.4 18:23:15 10° SSW 18:29:07 58° ESE 18:32:30 26° NE
Cosmos 2221 Rocket 4.4 18:25:09 10° SSE 18:28:14 31° ESE 18:28:14 31° ESE
Cosmos 1933 4.3 18:25:44 10° SSW 18:29:39 47° WNW 18:33:35 10° N
Envisat 4.3 18:33:52 23° NE 18:33:52 23° NE 18:36:48 10° N
BREEZE-M DEB (TANK) 4.0 18:32:09 10° WSW 18:33:46 19° S 18:34:10 18° S
ATLAS CENTAUR R/B 3.0 18:31:42 10° NW 18:34:21 18° N 18:34:46 18° N
Cosmos 1633 2.5 18:32:26 10° NNW 18:36:07 84° W 18:39:48 10° S
Cosmos 2034 Rocket 4.4 18:30:21 10° SSE 18:36:09 39° E 18:41:56 10° NNE
ALOS 2.2 18:33:02 10° SSE 18:37:43 85° ENE 18:42:26 10° NNW
Meteor 1-26 Rocket 4.2 18:33:08 10° SSW 18:38:43 83° WNW 18:44:17 10° NNE
Cosmos 1833 Rocket 2.7 18:33:36 10° NW 18:39:16 80° WSW 18:44:53 10° SSE
FENGYUN 3A 3.6 18:34:38 10° SSE 18:40:04 87° ENE 18:45:31 10° NNW
Intercosmos 25 4.2 18:33:18 10° S 18:40:41 64° E 18:44:05 19° NNE
SKYMED 3 4.5 18:40:10 32° NNE 18:42:05 65° ESE 18:46:24 10° S
Cosmos 1703 Rocket 3.5 18:38:12 10° S 18:42:38 66° E 18:44:45 30° NNE
Cosmos 1092 Rocket 4.3 18:37:43 10° N 18:43:29 40° ENE 18:44:34 37° E
Okean 2 Rocket 3.0 18:39:23 10° N 18:43:56 71° ENE 18:48:27 10° SSE
DNEPR-1 R/B 3.9 18:39:58 10° WSW 18:44:10 58° NW 18:45:38 37° NNE
Cosmos 1844 3.8 18:38:42 10° SW 18:44:30 81° NW 18:48:20 23° NNE
Meteor 1-28 Rocket 3.7 18:42:16 15° N 18:45:11 59° WNW 18:48:50 10° SSW
Cosmos 2278 Rocket 2.1 18:44:38 10° SSW 18:50:15 66° ESE 18:52:24 38° NE
Cosmos 2227 Rocket 4.1 18:46:54 10° NNW 18:50:15 16° N 18:51:47 14° NNE
EO 1 Del DPAF 3.1 18:52:11 78° ESE 18:52:11 78° ESE 18:56:01 10° SSW
MTI 4.2 18:53:13 60° SW 18:53:13 60° SW 18:55:57 10° SSW
Cosmos 2263 Rocket 3.9 18:49:51 10° W 18:54:32 26° NNW 18:58:21 14° NNE
Landsat 4 4.0 18:53:50 32° N 18:55:27 65° WNW 18:59:12 10° SSW
Cosmos 1606 3.1 18:52:35 10° S 18:55:26 49° S 18:55:26 49° S
Cosmos 540 Rocket 3.9 18:52:40 10° NNW 18:57:48 62° WSW 19:02:53 10° S
Meteor 2-20 4.3 18:52:54 10° N 18:59:03 77° ENE 19:05:08 10° SSE
SKYMED 2 3.5 18:58:26 36° NNE 19:00:11 88° WNW 19:04:32 10° SSW
ATLAS 3B R/B 3.5 18:55:23 10° W 19:02:06 42° NNW 19:05:01 29° NE
USA 238 DEB 4.4 18:55:48 10° W 19:02:28 45° NNW 19:05:31 30° NE
USA 238 4.4 18:55:54 10° W 19:02:34 45° NNW 19:05:37 30° NE
Cosmos 1782 2.9 19:01:22 10° S 19:04:58 70° SSW 19:04:58 70° SSW
Cosmos 1464 Rocket 3.8 18:59:20 10° S 19:05:26 74° E 19:11:37 10° NNE
Cosmos 1602 4.4 19:05:54 10° NNW 19:08:43 46° NNW 19:08:43 46° NNW
Cosmos 1486 Rocket 3.9 19:04:52 10° SSW 19:10:06 88° ESE 19:11:30 51° NNE
USA 234 3.5 19:11:31 43° ESE 19:12:18 45° SE 19:18:31 10° SSW
Resurs 01 Rocket 3.7 19:17:57 16° N 19:17:57 16° N 19:19:00 10° N
H-2A R/B 4.3 19:19:11 27° NNW 19:19:11 27° NNW 19:21:03 10° NNW
Meteor 2-6 Rocket 4.0 19:12:38 10° S 19:18:05 80° E 19:20:07 41° NNE
Lacrosse 5 1.9 19:16:17 10° W 19:21:21 70° N 19:21:28 69° N
Cosmos 2297 Rocket 4.1 19:18:52 10° NNW 19:22:19 16° N 19:22:38 16° NNE
Cosmos 2082 Rocket 3.3 19:17:44 10° NW 19:23:08 44° WSW 19:28:26 10° S
Cosmos 1354 Rocket 4.4 19:20:32 10° SSW 19:24:27 49° S 19:24:27 49° S
Cosmos 44 Rocket 4.1 19:21:54 10° NW 19:26:32 47° SW 19:27:55 36° S
CZ-4C R/B 2.9 19:22:41 10° NW 19:29:29 72° SW 19:32:45 37° SSE
NOSS 3-2 (C) 4.3 19:32:26 10° W 19:38:40 47° NNW 19:40:34 39° NNE
Cosmos 1538 Rocket 4.4 19:35:10 10° NNW 19:39:21 56° NNW 19:39:21 56° NNW
Meteor 1-27 Rocket 4.3 19:36:33 10° S 19:40:43 48° S 19:40:43 48° S
Okean 1-7 4.0 19:39:23 10° SSW 19:42:58 45° WSW 19:42:58 45° WSW
COSMO-SKYMED 1 4.0 19:47:05 31° NNW 19:48:08 35° WNW 19:52:05 10° SW
NOSS 3-2 (A) 4.4 19:42:41 10° W 19:48:55 43° N 19:50:14 40° NNE
Meteor 1-5 Rocket 4.4 19:45:10 10° NNW 19:49:57 64° NW 19:49:57 64° NW
Cosmos 1844 Rocket 4.3 19:57:46 10° W 20:02:39 29° NW 20:04:14 25° N
CENTAUR R/B 3.2 20:01:32 10° W 20:08:00 55° NNW 20:08:58 51° N
COSMOS 2455 3.6 20:05:09 10° WSW 20:10:56 47° NW 20:11:17 46° NNW
Cosmos 2278 Rocket 3.6 20:29:33 10° WSW 20:34:16 35° NW 20:34:16 35° NW
Cosmos 2227 Rocket 4.4 20:31:49 10° NNW 20:33:36 17° N 20:33:36 17° N
Cosmos 2263 Rocket 4.5 20:37:13 10° NW 20:40:02 15° N 20:40:02 15° N
ATLAS 3B R/B 3.8 20:47:36 10° WNW 20:52:16 36° NNW 20:52:16 36° NNW
USA 234 4.4 20:58:53 35° WSW 20:58:53 35° WSW 21:02:21 10° WSW
Lacrosse 5 4.5 20:59:31 10° WNW 21:00:39 17° WNW 21:00:39 17° WNW
